MEGLR Weather Reports


time (UTC)temp
C
wind
direction
speed
KPH
gust
KPH
rain 1hr
cm
rain 24hr
cm
rain mn
cm
humidity
%
barometer
mb
20260507004002 11 300 14.5 17.7 0.00 0.00 0.00 93
20260507003003 11 295 14.5 17.7 0.00 0.00 0.00 93
20260507002003 11 295 14.5 19.3 0.00 0.00 0.00 92
20260507001003 11 295 14.5 19.3 0.00 0.00 0.00 93
20260507000004 11 285 14.5 19.3 0.00 0.00 0.00 92
20260506235002 11 290 16.1 19.3 0.00 0.00 0.00 92
20260506234002 11 295 17.7 22.5 0.00 0.00 0.00 91
20260506233003 11 295 20.9 25.7 0.00 0.00 0.00 90
20260506232003 10 295 19.3 22.5 0.00 0.00 0.00 95
20260506231003 10 300 17.7 20.9 0.00 0.00 0.00 98
20260506230009 10 300 16.1 20.9 0.00 0.00 0.00 97
20260506225003 10 295 17.7 22.5 0.00 0.00 0.00 97
20260506224003 10 300 19.3 25.7 0.00 0.00 0.00 98
20260506223003 10 300 19.3 24.1 0.00 0.00 0.00 96
20260506222003 11 295 17.7 24.1 0.00 0.00 0.00 95
20260506221003 11 295 19.3 24.1 0.00 0.00 0.00 94
20260506220003 11 300 16.1 22.5 0.00 0.00 0.00 93
20260506215003 11 285 17.7 20.9 0.00 0.00 0.00 89
20260506214007 11 280 16.1 22.5 0.00 0.00 0.00 89
20260506213003 11 285 16.1 20.9 0.00 0.00 0.00 89
20260506212003 11 275 16.1 20.9 0.00 0.00 0.00 90
20260506211003 11 270 14.5 19.3 0.00 0.00 0.00 91
20260506210004 11 275 16.1 19.3 0.00 0.00 0.00 92
20260506205003 11 265 11.3 20.9 0.00 0.00 0.00 92
20260506204004 11 270 11.3 19.3 0.00 0.00 0.00 91
20260506203003 11 255 14.5 19.3 0.00 0.00 0.00 90
20260506202003 11 270 12.9 17.7 0.00 0.00 0.00 90
20260506201003 10 275 11.3 17.7 0.00 0.00 0.00 93
20260506200003 10 255 8.0 14.5 0.00 0.00 0.00 94
20260506195003 10 270 9.7 14.5 0.00 0.00 0.00 96
20260506194003 10 245 9.7 17.7 0.00 0.00 0.00 95
20260506193003 10 260 11.3 16.1 0.00 0.00 0.00 95
20260506192002 10 275 8.0 17.7 0.00 0.00 0.00 94
20260506191003 10 275 16.1 17.7 0.00 0.00 0.00 95
20260506190003 10 280 14.5 17.7 0.00 0.00 0.00 96
20260506185003 10 275 12.9 17.7 0.00 0.00 0.00 94
20260506184003 10 275 12.9 17.7 0.00 0.00 0.00 94
20260506183004 11 285 8.0 16.1 0.00 0.00 0.00 92
20260506182002 11 245 9.7 17.7 0.00 0.00 0.00 92
20260506181002 11 260 9.7 16.1 0.00 0.00 0.00 92
20260506180003 10 275 14.5 17.7 0.00 0.00 0.00 92
20260506175003 11 280 14.5 17.7 0.00 0.00 0.00 91
20260506174003 11 285 11.3 19.3 0.00 0.00 0.00 89
20260506173003 11 280 12.9 16.1 0.00 0.00 0.00 89
20260506172003 11 285 9.7 16.1 0.00 0.00 0.00 88
20260506171002 11 280 12.9 16.1 0.00 0.00 0.00 87
20260506170003 11 275 12.9 16.1 0.00 0.00 0.00 86
20260506165003 11 280 9.7 19.3 0.00 0.00 0.00 87
20260506164003 11 285 9.7 17.7 0.00 0.00 0.00 86
20260506163003 11 280 12.9 19.3 0.00 0.00 0.00 87
20260506162003 11 255 12.9 19.3 0.00 0.00 0.00 86
20260506161002 11 255 11.3 16.1 0.00 0.00 0.00 88
20260506160003 11 255 6.4 14.5 0.00 0.00 0.00 89
20260506155003 11 245 8.0 12.9 0.00 0.00 0.00 90
20260506154003 11 240 6.4 11.3 0.00 0.00 0.00 90
20260506153003 11 260 6.4 14.5 0.00 0.00 0.00 91
20260506152003 11 245 8.0 12.9 0.00 0.00 0.00 91
20260506151003 10 270 11.3 14.5 0.00 0.00 0.00 90
20260506150003 11 265 9.7 12.9 0.00 0.00 0.00 91
20260506145002 11 240 8.0 11.3 0.00 0.00 0.00 91
20260506144003 10 210 6.4 9.7 0.00 0.00 0.00 91
20260506143003 11 235 6.4 11.3 0.00 0.00 0.00 91
20260506142003 11 250 4.8 11.3 0.00 0.00 0.00 91
20260506141003 10 215 4.8 11.3 0.00 0.00 0.00 90
20260506140003 10 245 8.0 9.7 0.00 0.00 0.00 90
20260506135003 10 230 8.0 9.7 0.00 0.00 0.00 90
20260506134003 10 240 4.8 9.7 0.00 0.00 0.00 89
20260506133003 10 265 6.4 12.9 0.00 0.00 0.00 89
20260506132003 11 265 6.4 11.3 0.00 0.00 0.00 88
20260506131003 10 220 9.7 16.1 0.00 0.00 0.00 90
20260506130003 10 280 14.5 17.7 0.00 0.00 0.00 90
20260506125002 10 280 11.3 16.1 0.00 0.00 0.00 92
20260506124003 10 275 11.3 16.1 0.00 0.00 0.00 92
20260506123003 10 275 9.7 16.1 0.00 0.00 0.00 92
20260506122003 10 270 9.7 16.1 0.00 0.00 0.00 91
20260506121003 11 250 9.7 14.5 0.00 0.00 0.00 91
20260506120004 11 245 9.7 12.9 0.00 0.00 0.00 90
20260506115003 11 270 8.0 12.9 0.00 0.00 0.00 88
20260506114003 11 265 8.0 14.5 0.00 0.00 0.00 88
20260506113018 11 265 11.3 14.5 0.00 0.00 0.00 89
20260506112002 11 270 8.0 12.9 0.00 0.00 0.00 89
20260506111003 11 240 8.0 12.9 0.00 0.00 0.00 90
20260506110008 11 240 8.0 11.3 0.00 0.00 0.00 91
20260506105003 11 245 6.4 12.9 0.00 0.00 0.00 91
20260506104003 11 250 9.7 12.9 0.00 0.00 0.00 91
20260506103004 11 255 11.3 12.9 0.00 0.00 0.00 91
20260506102002 11 270 9.7 12.9 0.00 0.00 0.00 90
20260506101003 11 295 11.3 14.5 0.00 0.00 0.00 89
20260506100009 11 280 9.7 16.1 0.00 0.00 0.00 89
20260506095003 11 275 9.7 16.1 0.00 0.00 0.00 90
20260506094003 11 255 11.3 14.5 0.00 0.00 0.00 90
20260506093004 11 280 9.7 12.9 0.00 0.00 0.00 90
20260506092002 11 255 4.8 14.5 0.00 0.00 0.00 90
20260506091003 11 255 9.7 12.9 0.00 0.00 0.00 90
20260506090003 11 245 8.0 16.1 0.00 0.00 0.00 90
20260506085003 11 270 8.0 12.9 0.00 0.00 0.00 90
20260506084003 11 270 6.4 11.3 0.00 0.00 0.00 90
20260506083003 11 285 6.4 9.7 0.00 0.00 0.00 90
20260506082002 11 235 8.0 11.3 0.00 0.00 0.00 89
20260506081002 11 235 9.7 12.9 0.00 0.00 0.00 89
20260506073008 11 280 11.3 12.9 0.00 0.00 0.00 91
20260506072003 11 265 8.0 14.5 0.00 0.00 0.00 91
20260506071003 11 260 8.0 12.9 0.00 0.00 0.00 91
20260506062003 11 240 8.0 12.9 0.00 0.00 0.00 89
20260506061003 11 240 8.0 9.7 0.00 0.00 0.00 89
20260506051003 11 280 6.4 11.3 0.00 0.00 0.00 89
20260506045003 11 265 4.8 12.9 0.00 0.00 0.00 91
20260506044002 12 280 9.7 12.9 0.00 0.00 0.00 91
20260506043003 11 280 8.0 14.5 0.00 0.00 0.00 91
20260506042003 11 290 9.7 16.1 0.00 0.00 0.00 92
20260506041003 11 295 9.7 14.5 0.00 0.00 0.00 94
20260506040004 11 295 12.9 14.5 0.00 0.00 0.00 94
20260506035003 11 290 11.3 14.5 0.00 0.00 0.00 94
20260506034003 11 295 12.9 17.7 0.00 0.00 0.00 94
20260506033002 11 295 12.9 16.1 0.00 0.00 0.00 93
20260506032003 11 295 12.9 17.7 0.00 0.00 0.00 94
20260506031003 11 295 14.5 16.1 0.00 0.00 0.00 95
20260506030004 11 295 12.9 17.7 0.00 0.00 0.00 95
20260506025003 11 300 14.5 16.1 0.00 0.00 0.00 95
20260506024004 11 295 11.3 16.1 0.00 0.00 0.00 95
20260506023004 11 295 12.9 14.5 0.00 0.00 0.00 94
20260506022002 11 300 12.9 16.1 0.00 0.00 0.00 93
20260506021002 12 305 11.3 12.9 0.00 0.00 0.00 92
20260506020003 12 305 11.3 12.9 0.00 0.00 0.00 92
20260506015003 12 305 9.7 12.9 0.00 0.00 0.00 92
20260506014003 12 305 11.3 14.5 0.00 0.00 0.00 92
20260506013003 12 305 11.3 12.9 0.00 0.00 0.00 91
20260506012002 12 300 9.7 12.9 0.00 0.00 0.00 92
20260506011002 12 290 6.4 8.0 0.00 0.00 0.00 90
20260506010008 12 285 6.4 9.7 0.00 0.00 0.00 91
20260506005003 12 285 6.4 9.7 0.00 0.00 0.00 91